Regional Weather Roundup
Issued by NWS

Home | Current Version | Previous Version | Text Only | Print | Product List | Glossary Off
Versions: 1 2 3 4 5 6 7 8 9 10 11 12 13 14 15 16 17 18 19 20 21 22 23 24 25 26 27 28 29 30 31 32 33 34 35 36 37 38 39 40 41 42 43 44 45 46 47 48 49 50

000
ASUS43 KIND 240109
RWRIN

WEATHER ROUNDUP FOR INDIANA
NATIONAL WEATHER SERVICE INDIANAPOLIS IN
900 PM EDT FRI JUN 23 2017

NOTE: "FAIR" INDICATES FEW OR NO CLOUDS BELOW 12,000 FEET WITH NO
SIGNIFICANT WEATHER AND/OR OBSTRUCTIONS TO VISIBILITY.

* - STATION DOES NOT REPORT WEATHER SUCH AS PRECIPITATION OR FOG.

+ - STATION NOT QUALITY CONTROLLED BY THE NATIONAL WEATHER SERVICE.
    USE DATA WITH CAUTION...ESPECIALLY DEWPOINT AND RELATIVE
    HUMIDITY OBSERVATIONS.

INZ001>003-010>013-019-020-240200-
NORTHWEST INDIANA

CITY           SKY/WX    TMP DP  RH WIND       PRES   REMARKS
GARY /AIRPORT/ MOCLDY    79  48  34 W14       29.73S
KNOX *+        CLOUDY    72  54  53 CALM      29.74R
LA PORTE +     PTCLDY    69  63  81 SW3       29.75R
MICHIGAN CITY+ MOCLDY    68  61  77 CALM      29.74R
MONTICELLO +   PTCLDY    71  61  70 CALM      29.75R
RENSSELAER +   PTCLDY    72  55  56 SW3       29.76R
VALPARAISO     MOCLDY    75  53  46 CALM      29.75R

$$

LMZ046-743>745-240200-
SOUTHERN LAKE MICHIGAN

STATION/POSITION TIME  TEMP    WIND        PRES    WAVE
                       AIR SEA DIR/SP/G            HT
                 (UTC) (F)     (DEG/KT/KT) (MB)    (FT)
BURNS HARBOR     0100   75     230/  4/  6 1007.5
MICHIGAN CITY    0040   73     220/  5/  5   N/A
5NW MICH CITY    0100   71 70  220/  4/  6   N/A     1

$$

INZ004-005-014>016-021>024-240200-
NORTH CENTRAL INDIANA

CITY           SKY/WX    TMP DP  RH WIND       PRES   REMARKS
ELKHART        PTCLDY    72  54  53 CALM      29.73
GOSHEN         PTCLDY    70  51  51 W5        29.73R
LOGANSPORT +   CLEAR     68  55  64 CALM      29.77R
PERU/GRISSOM   CLEAR     71  54  54 CALM      29.74R
ROCHESTER +    CLEAR     72  55  56 CALM      29.75R
SOUTH BEND     CLEAR     70  58  65 W3        29.73R
WARSAW +       PTCLDY    66  54  63 CALM      29.74R

$$

INZ006>009-017-018-025>027-240200-
NORTHEAST INDIANA

CITY           SKY/WX    TMP DP  RH WIND       PRES   REMARKS
AUBURN +       CLOUDY    70  50  49 NW9       29.73R
FORT WAYNE     MOCLDY    70  54  56 W6        29.74R
HUNTINGTON +   CLOUDY    69  55  61 CALM      29.74R
KENDALLVILLE + CLOUDY   N/A N/A N/A CALM      29.74R

$$

INZ028-029-035-036-043>045-051>053-240200-
WEST CENTRAL INDIANA

CITY           SKY/WX    TMP DP  RH WIND       PRES   REMARKS
CRAWFORDSVL +  CLOUDY    67  64  90 CALM      29.78R
GREENCASTLE +  CLOUDY    70  63  78 CALM      29.79R
LAFAYETTE      PTCLDY    70  66  87 CALM      29.76R
TERRE HAUTE    CLOUDY    74  65  73 NW3       29.79R

$$

INZ030>032-037>040-046>048-054>057-064-065-240200-
CENTRAL INDIANA

CITY           SKY/WX    TMP DP  RH WIND       PRES   REMARKS
CP ATTERBURY + CLOUDY    70  64  83 NW5       29.77R
COLUMBUS       MOCLDY    70  66  88 NW13      29.76R
FRANKFORT +    CLOUDY    71  64  78 NW3       29.80R
GREENWOOD *+   CLEAR     71  61  70 N7        29.78R
INDIANAPOLIS   CLOUDY    69  61  75 NW6       29.77R
-EAGLE CREEK   PTCLDY    71  61  70 NW5       29.77R
KOKOMO +       PTCLDY    69  60  73 W3        29.77R
MARION +       MOCLDY    68  59  73 CALM      29.76R
MT COMFORT *+  CLOUDY    70  63  78 N7        29.77R
SHELBYVILLE    PTCLDY    72  64  76 NW7       29.76R
ZIONSVILLE +   PTCLDY    69  60  72 NW3       29.78R

$$

INZ033-034-041-042-049-050-058-059-240200-
EAST CENTRAL INDIANA

CITY           SKY/WX    TMP DP  RH WIND       PRES   REMARKS
MUNCIE         CLOUDY    71  62  73 NW8       29.75R
RICHMOND +     CLOUDY    68  64  88 NW7       29.75S

$$

INZ060-061-067>069-081>083-085>088-240200-
SOUTHWEST INDIANA

CITY           SKY/WX    TMP DP  RH WIND       PRES   REMARKS
EVANSVILLE     CLOUDY    75  71  87 NW7       29.80R
HUNTINGBURG *+ CLOUDY    75  72  90 NW8       29.79R
WASHINGTON +   CLOUDY    73  65  78 N8        29.79R

$$

INZ062-063-066-070>080-084-089>092-240200-
SOUTH CENTRAL AND SOUTHEAST INDIANA

CITY           SKY/WX    TMP DP  RH WIND       PRES   REMARKS
BEDFORD +      CLOUDY    72  68  88 NW3       29.77
BLOOMINGTON    CLOUDY    71  62  73 NW3       29.79R
MADISON *+     CLOUDY    72  68  88 NW6       29.77R
NORTH VERNON + CLOUDY    70  68  94 NW3       29.75R
SEYMOUR +      MOCLDY    73  72  94 NW5       29.75R

$$




USA.gov is the U.S. government's official web portal to all federal, state and local government web resources and services.